Hourly Weather Kozmin

Today, 29 October, Thursday

Time Temperature Precipitation Wind Pressure Humidity
00:00 +7°C° 0 mm 3 mps 746 mmHg 91%
01:00 +7°C° 0 mm 3 mps 747 mmHg 91%
02:00 +7°C° 0 mm 3 mps 746 mmHg 92%
03:00 +7°C° 0 mm 3 mps 746 mmHg 93%
04:00 +7°C° 0 mm 3 mps 746 mmHg 94%
05:00 +7°C° 0 mm 3 mps 746 mmHg 94%
06:00 +7°C° 0 mm 3 mps 746 mmHg 95%
07:00 +6°C° 0 mm 4 mps 746 mmHg 95%
08:00 +7°C° 0 mm 4 mps 745 mmHg 90%
09:00 +8°C° 0 mm 4 mps 745 mmHg 85%
10:00 +10°C° 0 mm 4 mps 745 mmHg 81%
11:00 +10°C° 0.3 mm 4 mps 745 mmHg 83%
12:00 +10°C° 0.3 mm 4 mps 745 mmHg 85%
13:00 +10°C° 0 mm 4 mps 745 mmHg 87%
14:00 +8°C° 0.1 mm 4 mps 745 mmHg 84%
15:00 +9°C° 0.1 mm 3 mps 745 mmHg 80%
16:00 +9°C° 0.1 mm 3 mps 745 mmHg 77%
17:00 +9°C° 0 mm 3 mps 746 mmHg 79%
18:00 +8°C° 0 mm 3 mps 746 mmHg 81%
19:00 +6°C° 0 mm 4 mps 747 mmHg 83%
20:00 +6°C° 0 mm 4 mps 747 mmHg 84%
21:00 +6°C° 0 mm 4 mps 747 mmHg 84%
22:00 +6°C° 0 mm 5 mps 747 mmHg 85%
23:00 +6°C° 0.2 mm 5 mps 747 mmHg 86%

Tomorrow, 30 October, Friday

Time Temperature Precipitation Wind Pressure Humidity
00:00 +6°C° 0.2 mm 5 mps 748 mmHg 87%
01:00 +7°C° 0.2 mm 5 mps 748 mmHg 88%
02:00 +7°C° 0.1 mm 5 mps 748 mmHg 87%
03:00 +7°C° 0.1 mm 5 mps 748 mmHg 86%
04:00 +7°C° 0.1 mm 4 mps 748 mmHg 85%
05:00 +7°C° 0 mm 4 mps 748 mmHg 85%
06:00 +7°C° 0 mm 4 mps 749 mmHg 85%
07:00 +7°C° 0 mm 4 mps 749 mmHg 85%
08:00 +7°C° 0 mm 4 mps 749 mmHg 84%
09:00 +7°C° 0 mm 4 mps 749 mmHg 83%
10:00 +8°C° 0 mm 3 mps 749 mmHg 82%
11:00 +9°C° 0 mm 3 mps 749 mmHg 80%
12:00 +9°C° 0 mm 3 mps 749 mmHg 77%
13:00 +10°C° 0 mm 3 mps 749 mmHg 74%
14:00 +9°C° 0 mm 2 mps 749 mmHg 77%
15:00 +9°C° 0 mm 2 mps 749 mmHg 80%
16:00 +9°C° 0 mm 1 mps 749 mmHg 83%
17:00 +9°C° 0.1 mm 1 mps 749 mmHg 86%
18:00 +9°C° 0.1 mm 1 mps 749 mmHg 88%
19:00 +9°C° 0.1 mm 1 mps 750 mmHg 91%
20:00 +8°C° 0 mm 1 mps 750 mmHg 92%
21:00 +7°C° 0 mm 0 mps 750 mmHg 93%
22:00 +7°C° 0 mm 0 mps 751 mmHg 93%
23:00 +7°C° 0 mm 0 mps 751 mmHg 93%

Day after tomorrow, 31 October, Saturday

Time Temperature Precipitation Wind Pressure Humidity
00:00 +7°C° 0 mm 1 mps 752 mmHg 92%
01:00 +7°C° 0 mm 1 mps 752 mmHg 92%
02:00 +7°C° 0 mm 1 mps 752 mmHg 91%
03:00 +6°C° 0 mm 0 mps 753 mmHg 90%
04:00 +6°C° 0 mm 0 mps 753 mmHg 89%
05:00 +5°C° 0 mm 0 mps 754 mmHg 88%
06:00 +5°C° 0 mm 0 mps 754 mmHg 88%
07:00 +5°C° 0 mm 0 mps 754 mmHg 88%
08:00 +6°C° 0 mm 0 mps 755 mmHg 83%
09:00 +9°C° 0 mm 1 mps 755 mmHg 78%
10:00 +10°C° 0 mm 1 mps 755 mmHg 73%
11:00 +11°C° 0 mm 1 mps 755 mmHg 71%
12:00 +11°C° 0 mm 1 mps 755 mmHg 68%
13:00 +12°C° 0 mm 2 mps 755 mmHg 65%
14:00 +10°C° 0 mm 2 mps 755 mmHg 69%
15:00 +10°C° 0 mm 2 mps 755 mmHg 73%
16:00 +9°C° 0 mm 2 mps 755 mmHg 77%
17:00 +8°C° 0 mm 2 mps 755 mmHg 79%
18:00 +8°C° 0 mm 2 mps 755 mmHg 81%
19:00 +7°C° 0 mm 2 mps 755 mmHg 83%
20:00 +7°C° 0 mm 2 mps 755 mmHg 84%
21:00 +7°C° 0 mm 3 mps 755 mmHg 86%
22:00 +7°C° 0 mm 3 mps 755 mmHg 87%
23:00 +5°C° 0 mm 3 mps 755 mmHg 88%

1 November, Sunday

Time Temperature Precipitation Wind Pressure Humidity
00:00 +5°C° 0 mm 3 mps 755 mmHg 89%
01:00 +5°C° 0 mm 3 mps 754 mmHg 91%
02:00 +5°C° 0 mm 4 mps 754 mmHg 91%
03:00 +5°C° 0 mm 4 mps 754 mmHg 91%
04:00 +5°C° 0 mm 4 mps 753 mmHg 92%
05:00 +5°C° 0 mm 4 mps 753 mmHg 91%
06:00 +5°C° 0 mm 4 mps 753 mmHg 90%
07:00 +5°C° 0 mm 5 mps 752 mmHg 89%
08:00 +6°C° 0 mm 5 mps 752 mmHg 84%
09:00 +7°C° 0 mm 5 mps 752 mmHg 78%
10:00 +8°C° 0 mm 6 mps 752 mmHg 73%
11:00 +8°C° 0 mm 6 mps 751 mmHg 70%
12:00 +9°C° 0 mm 6 mps 750 mmHg 67%
13:00 +10°C° 0 mm 6 mps 750 mmHg 65%
14:00 +10°C° 0 mm 6 mps 749 mmHg 67%
15:00 +9°C° 0 mm 6 mps 749 mmHg 69%
16:00 +9°C° 0 mm 6 mps 748 mmHg 72%
17:00 +9°C° 0.4 mm 6 mps 748 mmHg 77%
18:00 +9°C° 0.4 mm 6 mps 747 mmHg 83%
19:00 +9°C° 0.4 mm 6 mps 747 mmHg 88%
20:00 +10°C° 0.5 mm 6 mps 747 mmHg 90%
21:00 +10°C° 0.5 mm 5 mps 747 mmHg 92%
22:00 +10°C° 0.5 mm 5 mps 746 mmHg 94%
23:00 +10°C° 0 mm 5 mps 746 mmHg 94%

2 November, Monday

Time Temperature Precipitation Wind Pressure Humidity
00:00 +12°C° 0 mm 5 mps 746 mmHg 94%
01:00 +12°C° 0 mm 5 mps 746 mmHg 94%
02:00 +12°C° 0 mm 5 mps 746 mmHg 93%
03:00 +12°C° 0 mm 5 mps 745 mmHg 93%
04:00 +12°C° 0 mm 5 mps 745 mmHg 93%
05:00 +12°C° 0 mm 5 mps 745 mmHg 92%
06:00 +11°C° 0 mm 6 mps 745 mmHg 92%
07:00 +13°C° 0 mm 6 mps 744 mmHg 91%
08:00 +13°C° 0 mm 6 mps 744 mmHg 90%
09:00 +13°C° 0 mm 6 mps 744 mmHg 90%
10:00 +14°C° 0 mm 7 mps 744 mmHg 90%
11:00 +14°C° 0.1 mm 6 mps 744 mmHg 89%
12:00 +14°C° 0.1 mm 6 mps 744 mmHg 88%
13:00 +15°C° 0.1 mm 6 mps 744 mmHg 88%
14:00 +15°C° 0 mm 6 mps 744 mmHg 87%
15:00 +15°C° 0 mm 6 mps 744 mmHg 86%
16:00 +16°C° 0 mm 5 mps 744 mmHg 85%
17:00 +16°C° 0 mm 5 mps 745 mmHg 85%
18:00 +16°C° 0 mm 5 mps 745 mmHg 85%
19:00 +16°C° 0 mm 5 mps 745 mmHg 86%
20:00 +15°C° 0 mm 5 mps 745 mmHg 84%
21:00 +15°C° 0 mm 5 mps 745 mmHg 83%
22:00 +15°C° 0 mm 5 mps 745 mmHg 81%
23:00 +15°C° 0 mm 5 mps 745 mmHg 82%

3 November, Tuesday

Time Temperature Precipitation Wind Pressure Humidity
00:00 +15°C° 0 mm 5 mps 746 mmHg 83%
01:00 +15°C° 0 mm 5 mps 746 mmHg 83%
02:00 +15°C° 0 mm 5 mps 746 mmHg 84%
03:00 +15°C° 0 mm 5 mps 747 mmHg 84%
04:00 +14°C° 0 mm 5 mps 747 mmHg 84%
05:00 +14°C° 0 mm 5 mps 748 mmHg 82%
06:00 +13°C° 0 mm 5 mps 749 mmHg 79%
07:00 +12°C° 0 mm 5 mps 750 mmHg 77%
08:00 +12°C° 0 mm 5 mps 751 mmHg 75%
09:00 +12°C° 0 mm 5 mps 752 mmHg 72%
10:00 +12°C° 0 mm 4 mps 752 mmHg 70%
11:00 +12°C° 0 mm 4 mps 753 mmHg 67%
12:00 +12°C° 0 mm 3 mps 753 mmHg 63%
13:00 +12°C° 0 mm 3 mps 754 mmHg 59%
14:00 +13°C° 0 mm 2 mps 754 mmHg 62%
15:00 +12°C° 0 mm 1 mps 754 mmHg 66%
16:00 +11°C° 0 mm 1 mps 755 mmHg 69%
17:00 +11°C° 0 mm 1 mps 755 mmHg 71%
18:00 +10°C° 0 mm 0 mps 755 mmHg 72%
19:00 +9°C° 0 mm 0 mps 755 mmHg 74%
20:00 +10°C° 0 mm 1 mps 756 mmHg 74%
21:00 +10°C° 0 mm 1 mps 756 mmHg 75%
22:00 +10°C° 0 mm 1 mps 756 mmHg 75%
23:00 +10°C° 0.1 mm 1 mps 756 mmHg 78%
Show more